Renton, WA

5:54 AM PDT on August 23, 2017 (GMT -0700)
Renton Municipal

Weather History for KRNT - April, 2012

Change the Weather History Date:

Monday, April 16, 2012

  Actual Average Record
Temperature  
Mean Temperature 52 °F -  
Max Temperature 57 °F 57 °F 82 °F (1999)
Min Temperature 46 °F 42 °F 37 °F (2009)
Degree Days  
Heating Degree Days 12    
Growing Degree Days 2 (Base 50)    
Moisture  
Dew Point 44 °F    
Average Humidity 75    
Maximum Humidity 97    
Minimum Humidity 53    
Precipitation  
Precipitation 0.27 in - - ()
Sea Level Pressure  
Sea Level Pressure 30.04 in    
Wind  
Wind Speed 6 mph (South)    
Max Wind Speed 18 mph    
Max Gust Speed 32 mph    
Visibility 9 miles    
Events Rain    
Averages and records for this station are not official NWS values.
T = Trace of Precipitation, MM = Missing Value Source: NWS Daily Summary

Daily Weather History Graph

Daily Weather History Graph

Search for Another Location

Airport or City:

Trip Planner

Search our weather history database for the weather conditions in past years. The results will help you decide how hot, cold, wet, or windy it might be!

Date:

Astronomy

Apr. 16, 2012 Rise Set
Actual Time 6:17 AM PDT 8:00 PM PDT
Civil Twilight 5:44 AM PDT 8:33 PM PDT
Nautical Twilight 5:05 AM PDT 9:13 PM PDT
Astronomical Twilight 4:22 AM PDT 9:56 PM PDT
Moon 4:05 AM PDT (4/16) 3:45 PM PDT (4/16)
Length of Visible Light 14h 48m
Length of Day
13h 43m
Waning Crescent, 18% of the Moon is Illuminated
Apr 16
Waning Crescent
Apr 21
New
Apr 29
First Quarter
May 5
Full
May 12
Last Quarter

Hourly Weather History & Observations

Time (PDT) Temp. Windchill Dew Point Humidity Pressure Visibility Wind Dir Wind Speed Gust Speed Precip Events Conditions
12:53 AM 55.0 °F - 42.1 °F 62% 30.02 in 10.0 mi South 5.8 mph - N/A   Overcast
1:53 AM 50.0 °F - 46.0 °F 86% 30.00 in 10.0 mi Calm Calm - 0.02 in Rain Light Rain
2:53 AM 50.0 °F - 46.9 °F 89% 29.97 in 8.0 mi Calm Calm - 0.03 in Rain Light Rain
3:53 AM 48.9 °F - 46.0 °F 90% 29.94 in 7.0 mi Calm Calm - 0.04 in Rain Light Rain
4:53 AM 48.9 °F - 46.0 °F 90% 29.91 in 7.0 mi Calm Calm - 0.05 in Rain Light Rain
5:53 AM 48.9 °F - 46.9 °F 93% 29.90 in 10.0 mi Calm Calm - 0.05 in Rain Light Rain
6:53 AM 48.9 °F - 48.0 °F 97% 29.91 in 6.0 mi ESE 3.5 mph - 0.02 in Rain Light Rain
7:53 AM 50.0 °F - 48.0 °F 93% 29.92 in 10.0 mi Variable 6.9 mph - 0.03 in   Overcast
8:53 AM 54.0 °F - 50.0 °F 86% 29.94 in 10.0 mi SE 5.8 mph - N/A   Overcast
9:20 AM 53.6 °F - 50.0 °F 88% 29.94 in 9.0 mi SSE 12.7 mph 17.3 mph N/A   Overcast
9:53 AM 55.0 °F - 50.0 °F 83% 29.98 in 10.0 mi South 11.5 mph 19.6 mph 0.00 in   Overcast
10:53 AM 55.4 °F - 48.2 °F 77% 29.98 in 10.0 mi SSW 11.5 mph 18.4 mph N/A   Overcast
11:36 AM 51.8 °F - 46.4 °F 82% 30.01 in 3.0 mi SSW 11.5 mph 24.2 mph 0.03 in Rain Rain
11:46 AM 51.8 °F - 48.2 °F 88% 30.01 in 5.0 mi South 10.4 mph 17.3 mph 0.03 in Rain Light Rain
11:53 AM 53.1 °F - 48.9 °F 86% 30.02 in 10.0 mi South 9.2 mph - 0.03 in   Mostly Cloudy
12:53 PM 55.0 °F - 46.9 °F 74% 30.04 in 10.0 mi South 12.7 mph 20.7 mph 0.00 in   Partly Cloudy
1:53 PM 57.0 °F - 43.0 °F 59% 30.05 in 10.0 mi South 16.1 mph 32.2 mph N/A   Partly Cloudy
2:53 PM 57.0 °F - 42.1 °F 57% 30.08 in 10.0 mi South 13.8 mph 26.5 mph N/A   Scattered Clouds
3:53 PM 57.9 °F - 41.0 °F 53% 30.09 in 10.0 mi South 18.4 mph 32.2 mph N/A   Clear
4:53 PM 55.9 °F - 39.9 °F 55% 30.12 in 10.0 mi South 13.8 mph 21.9 mph N/A   Clear
5:53 PM 54.0 °F - 39.0 °F 57% 30.14 in 10.0 mi South 10.4 mph 24.2 mph N/A   Clear
6:53 PM 52.0 °F - 39.0 °F 61% 30.15 in 10.0 mi South 5.8 mph - N/A   Scattered Clouds
7:53 PM 51.1 °F - 37.9 °F 61% 30.17 in 10.0 mi South 8.1 mph - N/A   Mostly Cloudy
8:53 PM 48.9 °F - 37.9 °F 66% 30.19 in 10.0 mi South 8.1 mph - N/A   Clear
9:53 PM 48.0 °F - 37.9 °F 68% 30.21 in 10.0 mi South 8.1 mph - N/A   Partly Cloudy
10:53 PM 48.0 °F - 37.0 °F 66% 30.22 in 10.0 mi SSE 4.6 mph - N/A   Clear
11:53 PM 46.0 °F 44.8 °F 37.0 °F 71% 30.23 in 10.0 mi Variable 3.5 mph - N/A   Clear